Olympia, WA
on Saturday, November 10, 2012

Saturday
Previous Day Next Day
Daily Summary
 ActualAverageRecord
Temperature
Mean Temperature °F 45°F  
Max Temperature 46°F 52°F 62°F (1954)
Min Temperature 20°F 38°F 20°F (2012)
Degree Days
Heating Degree Days 32 20  
Month to date heating degree days 176 194  
Since 1 July heating degree days 954 988  
Cooling Degree Days 0 0  
Month to date cooling degree days 0 0  
Year to date cooling degree days 82 106  
Moisture
Dew Point 25°F   
Average Humidity 73    
Maximum Humidity 100    
Minimum Humidity 45    
Precipitation
Precipitation 0.00 in 0.29 in 1.90 in (1962)
Month to date precipitation 1.26 2.58  
Year to date precipitation 41.96 36.49  
Wind
Wind Speed 1 mph   
Max Wind Speed 7 mph   
Max Gust Speed 9 mph   
Visibility 4 miles   
Events Fog   

Key: T is trace of precipitation, MM is missing value
Source: NWS Daily Summary
Time(PST)TemperatureDew PointHumidity Pressure Visibility Wind DirectionWind SpeedGust SpeedPrecipitationEvents Conditions
12:08 AM 26.6°F 24.8°F 93% 29.96 in 5.0 miles Calm Calm - N/A   Partly Cloudy
12:11 AM 26.6°F 24.8°F 93% 29.96 in 1.5 miles Calm Calm - N/A   Partly Cloudy
12:14 AM 26.6°F 24.8°F 93% 29.96 in 0.8 miles Calm Calm - N/A   Mist
12:24 AM 26.6°F 26.6°F 100% 29.97 in 1.2 miles Calm Calm - N/A   Partly Cloudy
12:27 AM 24.8°F 24.8°F 100% 29.97 in 2.0 miles Calm Calm - N/A   Partly Cloudy
12:37 AM 24.8°F 24.8°F 100% 29.97 in 4.0 miles Calm Calm - N/A   Clear
12:46 AM 26.6°F 24.8°F 93% 29.97 in 1.8 miles Calm Calm - N/A   Clear
12:52 AM 24.8°F 24.8°F 100% 29.97 in 1.0 miles Calm Calm - N/A   Mist
12:54 AM 24.1°F 23.0°F 96% 29.98 in 0.8 miles Calm Calm - N/A   Mist
1:09 AM 24.8°F 23.0°F 93% 29.97 in 1.2 miles Calm Calm - N/A   Partly Cloudy
1:12 AM 26.6°F 24.8°F 93% 29.97 in 2.0 miles Calm Calm - N/A   Partly Cloudy
1:19 AM 24.8°F 24.8°F 100% 29.97 in 4.0 miles Calm Calm - N/A   Partly Cloudy
1:32 AM 26.6°F 24.8°F 93% 29.98 in 2.0 miles Calm Calm - N/A   Clear
1:34 AM 26.6°F 24.8°F 93% 29.98 in 1.2 miles Calm Calm - N/A   Clear
1:38 AM 26.6°F 24.8°F 93% 29.98 in 0.5 miles Calm Calm - N/A Fog Light Freezing Fog
1:47 AM 26.6°F 24.8°F 93% 29.98 in 0.2 miles Calm Calm - N/A Fog Light Freezing Fog
1:52 AM 26.6°F 24.8°F 93% 29.99 in 1.2 miles South 3.5 mph - N/A   Scattered Clouds
1:54 AM 26.1°F 25.0°F 96% 29.99 in 2.5 miles South 4.6 mph - N/A   Scattered Clouds
2:01 AM 24.8°F 24.8°F 100% 29.99 in 3.0 miles Calm Calm - N/A   Scattered Clouds
2:54 AM 25.0°F 21.9°F 88% 30.00 in 2.5 miles Calm Calm - N/A   Clear
3:05 AM 24.8°F 24.8°F 100% 29.99 in 1.5 miles Calm Calm - N/A   Clear
3:19 AM 24.8°F 24.8°F 100% 29.99 in 0.8 miles Calm Calm - N/A   Clear
3:27 AM 23.0°F 21.2°F 93% 29.99 in 1.8 miles Calm Calm - N/A   Clear
3:29 AM 23.0°F 21.2°F 93% 29.99 in 3.0 miles Calm Calm - N/A   Clear
3:33 AM 21.2°F 19.4°F 93% 30.00 in 1.2 miles Calm Calm - N/A   Clear
3:35 AM 21.2°F 19.4°F 93% 30.00 in 1.0 miles Calm Calm - N/A   Mist
3:43 AM 24.8°F 21.2°F 86% 30.00 in 2.0 miles Calm Calm - N/A   Scattered Clouds
3:49 AM 23.0°F 21.2°F 93% 30.00 in 1.5 miles Calm Calm - N/A   Mostly Cloudy
3:51 AM 24.8°F 23.0°F 93% 30.00 in 0.8 miles Calm Calm - N/A   Mist
3:54 AM 24.8°F 24.8°F 100% 30.00 in 0.5 miles Calm Calm - N/A Fog Light Freezing Fog
4:02 AM 24.8°F 21.2°F 86% 30.00 in 1.8 miles Calm Calm - N/A   Scattered Clouds
4:09 AM 24.8°F 21.2°F 86% 30.00 in 2.5 miles Calm Calm - N/A   Scattered Clouds
4:37 AM 21.2°F 19.4°F 93% 30.01 in 7.0 miles Calm Calm - N/A   Partly Cloudy
4:54 AM 23.0°F 21.0°F 92% 30.03 in 6.0 miles Calm Calm - N/A   Clear
5:54 AM 25.0°F 23.0°F 92% 30.04 in 6.0 miles Calm Calm - N/A   Mostly Cloudy
6:54 AM 25.0°F 24.1°F 96% 30.06 in 7.0 miles Calm Calm - N/A   Overcast
7:54 AM 28.0°F 26.1°F 92% 30.08 in 10.0 miles Calm Calm - N/A   Overcast
8:54 AM 30.0°F 28.0°F 92% 30.10 in 10.0 miles Calm Calm - N/A   Overcast
9:54 AM 30.9°F 30.0°F 96% 30.12 in 10.0 miles Calm Calm - N/A   Scattered Clouds
10:54 AM 37.9°F 34.0°F 86% 30.12 in 10.0 miles Calm Calm - N/A   Partly Cloudy
11:54 AM 42.1°F 30.9°F 65% 30.13 in 10.0 miles SE 3.5 mph - N/A   Partly Cloudy
12:54 PM 44.1°F 28.0°F 53% 30.14 in 10.0 miles ESE 3.5 mph - N/A   Partly Cloudy
1:54 PM 45.0°F 25.0°F 46% 30.14 in 10.0 miles ESE 4.6 mph - N/A   Partly Cloudy
2:54 PM 45.0°F 27.0°F 49% 30.14 in 10.0 miles East 3.5 mph - N/A   Clear
3:54 PM 44.1°F 27.0°F 51% 30.16 in 10.0 miles East 4.6 mph - N/A   Clear
4:54 PM 36.0°F 27.0°F 70% 30.17 in 10.0 miles Calm Calm - N/A   Clear
5:54 PM 32.0°F 26.1°F 79% 30.18 in 10.0 miles Calm Calm - N/A   Clear
6:54 PM 30.9°F 27.0°F 85% 30.19 in 7.0 miles Calm Calm - N/A   Clear
7:54 PM 28.4°F 26.6°F 93% 30.19 in 7.0 miles Calm Calm - N/A   Clear
8:54 PM 28.0°F 26.1°F 92% 30.21 in 4.0 miles Calm Calm - N/A   Clear
9:54 PM 28.0°F 26.1°F 92% 30.22 in 5.0 miles Calm Calm - N/A   Clear
10:54 PM 28.0°F 26.1°F 92% 30.22 in 4.0 miles Calm Calm - N/A   Clear
11:54 PM 28.9°F 28.0°F 96% 30.23 in 4.0 miles Calm Calm - N/A   Mostly Cloudy
Moon Phase
Nov. 10 Nov. 13 Nov. 20 Nov. 28 Dec. 06
Sunrise:07:08 AM (PST) Moon Rise:03:07 AM (PST)11/10
Sunset:04:42 PM (PST) Moon Set:02:42 PM (PST)11/10

Copyright © 2014 The Weather Underground, Inc.